Tracking 20083 objects as of 12-Dec-2019
HD Live streaming from Space Station
objects crossing your sky now

FENGYUN 1C DEB

Track FENGYUN 1C DEB now!
10-day predictions


NORAD ID: 29897
Int'l Code: 1999-025GT
Perigee: 848.3 km
Apogee: 1,323.2 km
Inclination: 98.6 °
Period: 106.8 minutes
Semi major axis: 7456 km
RCS: 0.0153 m2 (small)
Launch date: May 10, 1999
Source: People's Republic of China (PRC)
Launch site: Taiyaun Space Center, China (TSC)

Note: This is SATELLITE DEBRIS
aabbcc
Your satellite tracking list
Your tracking list is empty




NASA's NSSDC Master Catalog

Two Line Element Set (TLE):
1 29897U 99025GT  19346.30416306  .00000482  00000-0  61223-3 0  9997
2 29897  98.6435 101.2227 0318401  27.6274  24.5203 13.48273044633411
Source of the keplerian elements: AFSPC